{"data":{"norad_id":51725,"intl_designator":"2022-016M","name":"STARLINK-3522","alt_names":[],"object_type":"PAYLOAD","status":"ACTIVE","operator":null,"country":"US","launch_date":"2022-02-21","launch_site_code":"AFETR","launch_vehicle":null,"mission":null,"orbit_class":"UNKNOWN","rcs_meters":null,"size_class":null,"mass_kg":null,"dimensions":null,"purposes":["comms"],"wikipedia_slug":null,"has_3d_model":false,"image_url":null,"decayed_at":null,"tle_current":{"epoch":"2026-09-20T02:57:09.641664Z","epoch_age_seconds":81046,"freshness":"FRESH","line1":"1 51725U 22016M   26263.12302826 -.00000797  00000+0 -12880-4 0  9991","line2":"2 51725  53.1601 165.7061 0002026  78.7622 281.3608 15.33536156252911","mean_motion":15.33536156,"eccentricity":0.0002026,"inclination_deg":53.1601,"raan_deg":165.7061,"arg_perigee_deg":78.7622,"mean_anomaly_deg":281.3608,"bstar":-1.288e-5,"rev_number":25291,"period_min":93.900622712152,"perigee_km":463.88549713286,"apogee_km":466.65844644823,"semimajor_km":6843.4089717905,"source":"CELESTRAK","updated_at":"2026-09-20T09:00:39.600447Z"}}}